Change the Weather History Date:

Saturday, July 13, 2013

  Actual Average Record
Temperature  
Mean Temperature 57 °F -  
Max Temperature 66 °F 60 °F 77 °F (2003)
Min Temperature 48 °F 48 °F 37 °F (1962)
Degree Days  
Heating Degree Days 8    
Growing Degree Days 7 (Base 50)    
Moisture  
Dew Point 46 °F    
Average Humidity 64    
Maximum Humidity 87    
Minimum Humidity 49    
Precipitation  
Precipitation 0.00 in - - ()
Sea Level Pressure  
Sea Level Pressure 30.05 in    
Wind  
Wind Speed 4 mph (WSW)    
Max Wind Speed 16 mph    
Max Gust Speed 18 mph    
Visibility 10 miles    
Events      
Averages and records for this station are not official NWS values.
T = Trace of Precipitation, MM = Missing Value Source: NWS Daily Summary

Daily Weather History Graph

Daily Weather History Graph

Search for Another Location

Airport or City:

Trip Planner

Search our weather history database for the weather conditions in past years. The results will help you decide how hot, cold, wet, or windy it might be!

Date:

Astronomy

Jul. 13, 2013 Rise Set
Actual Time 5:00 AM AKDT 11:18 PM AKDT
Civil Twilight 3:34 AM AKDT 12:42 AM AKDT
Nautical Twilight Sun does not rise Sun does not rise
Astronomical Twilight Sun does not rise Sun does not rise
Moon 12:17 PM AKDT (7/13) No Moon Set
Length of Visible Light 21h 08m
Length of Day
18h 17m
Waxing Crescent, 27% of the Moon is Illuminated
Jul 13
Waxing Crescent
Jul 15
First Quarter
Jul 22
Full
Jul 29
Last Quarter
Aug 6
New

Hourly Weather History & Observations

Time (AKDT) Temp. Dew Point Humidity Pressure Visibility Wind Dir Wind Speed Gust Speed Precip Events Conditions
12:16 AM 62.6 °F 48.2 °F 59% 29.95 in 10.0 mi SSW 4.6 mph - N/A   Unknown
12:36 AM 60.8 °F 48.2 °F 63% 29.96 in 10.0 mi South 3.5 mph - N/A   Unknown
12:56 AM 57.2 °F 46.4 °F 67% 29.96 in 10.0 mi Calm Calm - N/A   Unknown
1:16 AM 55.4 °F 46.4 °F 72% 29.96 in 10.0 mi Calm Calm - N/A   Unknown
1:36 AM 55.4 °F 46.4 °F 72% 29.96 in 10.0 mi Calm Calm - N/A   Unknown
1:56 AM 53.6 °F 44.6 °F 72% 29.97 in 10.0 mi Calm Calm - N/A   Unknown
2:16 AM 51.8 °F 44.6 °F 76% 29.97 in 10.0 mi Calm Calm - N/A   Unknown
2:36 AM 53.6 °F 44.6 °F 72% 29.98 in 10.0 mi ENE 3.5 mph - N/A   Unknown
2:56 AM 51.8 °F 44.6 °F 76% 29.97 in 10.0 mi SSE 3.5 mph - N/A   Unknown
3:16 AM 50.0 °F 42.8 °F 76% 29.97 in 10.0 mi Calm Calm - N/A   Unknown
3:36 AM 53.6 °F 44.6 °F 72% 29.97 in 10.0 mi Calm Calm - N/A   Unknown
3:56 AM 50.0 °F 42.8 °F 76% 29.97 in 10.0 mi East 3.5 mph - N/A   Unknown
4:16 AM 50.0 °F 42.8 °F 76% 29.98 in 10.0 mi East 4.6 mph - N/A   Unknown
4:36 AM 48.2 °F 44.6 °F 87% 29.98 in 10.0 mi Calm Calm - N/A   Unknown
4:56 AM 50.0 °F 42.8 °F 76% 29.98 in 10.0 mi Calm Calm - N/A   Unknown
5:16 AM 48.2 °F 42.8 °F 82% 29.99 in 10.0 mi NE 3.5 mph - N/A   Unknown
5:36 AM 48.2 °F 42.8 °F 82% 29.99 in 10.0 mi Calm Calm - N/A   Unknown
5:56 AM 48.2 °F 42.8 °F 82% 30.00 in 10.0 mi Calm Calm - N/A   Unknown
6:16 AM 48.2 °F 42.8 °F 82% 30.00 in 10.0 mi Calm Calm - N/A   Unknown
6:36 AM 48.2 °F 44.6 °F 87% 30.00 in 10.0 mi Calm Calm - N/A   Unknown
6:56 AM 51.8 °F 44.6 °F 76% 30.00 in 10.0 mi Calm Calm - N/A   Unknown
7:16 AM 51.8 °F 44.6 °F 76% 30.01 in 10.0 mi Calm Calm - N/A   Unknown
7:36 AM 53.6 °F 46.4 °F 77% 30.01 in 10.0 mi Calm Calm - N/A   Unknown
7:56 AM 53.6 °F 46.4 °F 77% 30.01 in 10.0 mi Calm Calm - N/A   Unknown
8:16 AM 55.4 °F 46.4 °F 72% 30.01 in 10.0 mi Calm Calm - N/A   Unknown
8:36 AM 55.4 °F 46.4 °F 72% 30.02 in 10.0 mi Calm Calm - N/A   Unknown
8:56 AM 57.2 °F 48.2 °F 72% 30.02 in 10.0 mi Calm Calm - N/A   Unknown
9:16 AM 57.2 °F 48.2 °F 72% 30.02 in 10.0 mi West 3.5 mph - N/A   Unknown
9:36 AM 59.0 °F 48.2 °F 67% 30.03 in 10.0 mi Calm Calm - N/A   Unknown
9:56 AM 59.0 °F 48.2 °F 67% 30.03 in 10.0 mi Calm Calm - N/A   Unknown
10:16 AM 60.8 °F 48.2 °F 63% 30.04 in 10.0 mi WNW 3.5 mph - N/A   Unknown
10:36 AM 60.8 °F 50.0 °F 68% 30.04 in 10.0 mi NW 4.6 mph - N/A   Unknown
10:56 AM 60.8 °F 50.0 °F 68% 30.04 in 10.0 mi West 3.5 mph - N/A   Unknown
11:16 AM 60.8 °F 50.0 °F 68% 30.04 in 10.0 mi West 3.5 mph - N/A   Unknown
11:36 AM 62.6 °F 50.0 °F 63% 30.05 in 10.0 mi West 8.1 mph - N/A   Unknown
11:56 AM 62.6 °F 48.2 °F 59% 30.05 in 10.0 mi West 8.1 mph - N/A   Unknown
12:16 PM 62.6 °F 48.2 °F 59% 30.06 in 10.0 mi West 11.5 mph - N/A   Unknown
12:36 PM 60.8 °F 48.2 °F 63% 30.06 in 10.0 mi West 6.9 mph - N/A   Unknown
12:56 PM 60.8 °F 48.2 °F 63% 30.06 in 10.0 mi West 6.9 mph - N/A   Unknown
1:16 PM 60.8 °F 48.2 °F 63% 30.06 in 10.0 mi WNW 9.2 mph - N/A   Unknown
1:36 PM 62.6 °F 48.2 °F 59% 30.07 in 10.0 mi WNW 9.2 mph - N/A   Unknown
1:56 PM 64.4 °F 46.4 °F 52% 30.07 in 10.0 mi West 12.7 mph - N/A   Unknown
2:16 PM 64.4 °F 48.2 °F 56% 30.07 in 10.0 mi West 10.4 mph 18.4 mph N/A   Unknown
2:36 PM 64.4 °F 48.2 °F 56% 30.07 in 10.0 mi West 10.4 mph - N/A   Unknown
2:56 PM 66.2 °F 48.2 °F 52% 30.07 in 10.0 mi West 10.4 mph - N/A   Unknown
3:16 PM 66.2 °F 46.4 °F 49% 30.07 in 10.0 mi West 13.8 mph - N/A   Unknown
3:36 PM 66.2 °F 46.4 °F 49% 30.08 in 10.0 mi West 11.5 mph - N/A   Unknown
3:56 PM 66.2 °F 48.2 °F 52% 30.08 in 10.0 mi West 10.4 mph - N/A   Unknown
4:16 PM 66.2 °F 46.4 °F 49% 30.08 in 10.0 mi West 10.4 mph - N/A   Unknown
4:36 PM 66.2 °F 48.2 °F 52% 30.08 in 10.0 mi SW 12.7 mph - N/A   Unknown
4:56 PM 66.2 °F 46.4 °F 49% 30.08 in 10.0 mi West 16.1 mph - N/A   Unknown
5:16 PM 66.2 °F 46.4 °F 49% 30.08 in 10.0 mi West 12.7 mph - N/A   Unknown
5:36 PM 66.2 °F 46.4 °F 49% 30.08 in 10.0 mi West 11.5 mph - N/A   Unknown
5:56 PM 66.2 °F 46.4 °F 49% 30.09 in 10.0 mi SW 11.5 mph 16.1 mph N/A   Unknown
6:16 PM 64.4 °F 44.6 °F 49% 30.09 in 10.0 mi SW 10.4 mph - N/A   Unknown
6:36 PM 64.4 °F 44.6 °F 49% 30.09 in 10.0 mi WSW 12.7 mph - N/A   Unknown
6:56 PM 64.4 °F 44.6 °F 49% 30.10 in 10.0 mi WSW 9.2 mph - N/A   Unknown
7:16 PM 64.4 °F 44.6 °F 49% 30.10 in 10.0 mi WSW 11.5 mph - N/A   Unknown
7:36 PM 64.4 °F 44.6 °F 49% 30.10 in 10.0 mi WSW 9.2 mph - N/A   Unknown
7:56 PM 64.4 °F 44.6 °F 49% 30.10 in 10.0 mi WSW 10.4 mph - N/A   Unknown
8:16 PM 62.6 °F 44.6 °F 52% 30.11 in 10.0 mi WSW 13.8 mph 18.4 mph N/A   Unknown
8:36 PM 62.6 °F 44.6 °F 52% 30.11 in 10.0 mi WSW 9.2 mph - N/A   Unknown
8:56 PM 60.8 °F 44.6 °F 55% 30.11 in 10.0 mi WSW 9.2 mph - N/A   Unknown
9:16 PM 60.8 °F 44.6 °F 55% 30.12 in 10.0 mi WSW 5.8 mph 16.1 mph N/A   Unknown
9:36 PM 60.8 °F 44.6 °F 55% 30.13 in 10.0 mi SSW 6.9 mph - N/A   Unknown
9:56 PM 60.8 °F 44.6 °F 55% 30.13 in 10.0 mi SW 8.1 mph - N/A   Unknown
10:16 PM 59.0 °F 44.6 °F 59% 30.14 in 10.0 mi SW 5.8 mph - N/A   Unknown
10:36 PM 57.2 °F 46.4 °F 67% 30.15 in 10.0 mi WNW 5.8 mph - N/A   Unknown
10:56 PM 55.4 °F 46.4 °F 72% 30.15 in 10.0 mi West 5.8 mph - N/A   Unknown
11:16 PM 53.6 °F 46.4 °F 77% 30.16 in 10.0 mi West 6.9 mph - N/A   Unknown
11:36 PM 53.6 °F 46.4 °F 77% 30.17 in 10.0 mi West 4.6 mph - N/A   Unknown
11:56 PM 53.6 °F 46.4 °F 77% 30.17 in 10.0 mi Calm Calm - N/A   Unknown